Location: Waldport
(44.4270°N, 124.0680°W)
Time: 02:50:22
(UTC-07:00)

Cosmos 2278 Rocket - Pass Details

Date: 23 June 2018
Orbit: 840 x 847 km, 71.0° (Epoch: 20 July)

Event Time Altitude Azimuth Distance (km) Brightness Sun altitude
Exits shadow 23:42:10 - 222° (SW) 3,434 5.1 -18.7°
Rises 23:42:16 0° 223° (SW) 3,391 5.1 -18.7°
Reaches altitude 10° 23:44:49 10° 229° (SW) 2,461 4.4 -18.8°
Maximum altitude 23:50:13 46° 302° (WNW) 1,132 3.2 -19.2°
Drops below altitude 10° 23:55:41 10° 15° (NNE) 2,479 5.4 -19.6°
Sets 23:58:16 0° 22° (NNE) 3,419 6.1 -19.7°
